Regional Weather Roundup
Issued by NWS

Home | Current Version | Previous Version | Text Only | Print | Product List | Glossary Off
Versions: 1 2 3 4 5 6 7 8 9 10 11 12 13 14 15 16 17 18 19 20 21 22 23 24 25 26 27 28 29 30 31 32 33 34 35 36 37 38 39 40 41 42 43 44 45 46 47 48 49 50

000
ASUS43 KDTX 281201
RWRMI
MICHIGAN HOURLY REGIONAL WEATHER ROUNDUP
NATIONAL WEATHER SERVICE DETROIT/PONTIAC MI
700 AM EST FRI NOV 28 2014

NOTE: "FAIR" INDICATES FEW OR NO CLOUDS BELOW 12,000 FEET WITH NO
SIGNIFICANT WEATHER AND/OR OBSTRUCTION TO VISIBILITY.

MIZ047>049-052>055-059>063-066>070-074>076-081>083-281300-
SOUTHEAST LOWER MICHIGAN

CITY           SKY/WX    TMP DP  RH WIND       PRES   REMARKS
ADRIAN         PTCLDY    14   9  80 CALM      30.36R
6HR MIN TEMP:  13; 6HR MAX TEMP:  19;

ALMA           CLOUDY    19  12  75 S5        30.32S WCI  12
ANN ARBOR      PTCLDY    15   9  76 W3        30.34S
BAD AXE        FLURRIES  19  13  76 W3        30.29F
6HR MIN TEMP:  19; 6HR MAX TEMP:  20;

CARO           MOCLDY    18  12  79 W5        30.32S WCI  11
DETROIT CITY   PTCLDY    20   7  57 W7        30.35S WCI  11
6HR MIN TEMP:  20; 6HR MAX TEMP:  25;

DETROIT        CLOUDY    19   7  59 NW3       30.36S
6HR MIN TEMP:  18; 6HR MAX TEMP:  23;

FLINT          MOCLDY    19  10  68 W3        30.33S
6HR MIN TEMP:  15; 6HR MAX TEMP:  19;

GROSSE ILE     PTCLDY    19   7  58 N3        30.35R
HILLSDALE      CLOUDY    18  15  88 CALM      30.33R
6HR MIN TEMP:  15; 6HR MAX TEMP:  19;

HOWELL         MOCLDY    17  12  80 CALM      30.32R
6HR MIN TEMP:  14; 6HR MAX TEMP:  20;


CITY           SKY/WX    TMP DP  RH WIND       PRES   REMARKS
JACKSON        CLOUDY    16  11  80 SW3       30.34R
6HR MIN TEMP:  11; 6HR MAX TEMP:  17;

LAMBERTVILLE   PTCLDY    14  10  85 CALM      30.38R
LANSING        MOCLDY    18  11  74 SW3       30.34R
6HR MIN TEMP:  16; 6HR MAX TEMP:  20; 6HR PCP: TRACE;

LAPEER         FAIR      17  10  74 W3        30.32S
MASON          MOCLDY    18  11  74 CALM      30.33S
PONTIAC        MOCLDY    16   7  67 W3        30.30F
6HR MIN TEMP:  15; 6HR MAX TEMP:  20;

PORT HOPE        N/A     21   9  59 W7G18     30.28F WCI  12
6HR MIN TEMP:  19; 6HR MAX TEMP:  21;

PORT HURON     MOCLDY    19   9  63 W3        30.33R
TRI CITIES     CLOUDY    19  12  74 SW3       30.32F
6HR MIN TEMP:  16; 6HR MAX TEMP:  20;

TROY           PTCLDY    20   9  60 CALM      30.35F
SAGINAW HB     CLOUDY    19  12  73 SW3       30.32F
$$
MIZ043>046-050>051-056>058-064>065-071>073-077>080-281300-
SOUTHWEST LOWER MICHIGAN

CITY           SKY/WX    TMP DP  RH WIND       PRES   REMARKS
BATTLE CREEK   CLOUDY    22  14  71 S5        30.33S WCI  16
6HR MIN TEMP:  21; 6HR MAX TEMP:  22;

BENTON HARBOR  CLOUDY    22  13  68 S6        30.31F WCI  14
6HR MIN TEMP:  22; 6HR MAX TEMP:  24;

BIG RAPIDS     CLOUDY    18  16  89 S3        30.26F
6HR MIN TEMP:  17; 6HR MAX TEMP:  18;

COLDWATER      CLOUDY    23  20  87 SW6       30.33S WCI  16
6HR MIN TEMP:  18; 6HR MAX TEMP:  23;

FREMONT        FLURRIES  19  16  89 S5        30.28F WCI  12
HOLLAND        LGT SNOW  21  16  81 SE7       30.30F WCI  12
6HR MIN TEMP:  20; 6HR MAX TEMP:  22; 6HR PCP: TRACE;

GRAND RAPIDS   CLOUDY    20  12  71 S9        30.31F WCI   9
6HR MIN TEMP:  16; 6HR MAX TEMP:  20;

IONIA          CLOUDY    21  12  69 S6        30.31F WCI  13
KALAMAZOO      CLOUDY    22  17  81 S6        30.33F WCI  14
6HR MIN TEMP:  21; 6HR MAX TEMP:  22;

LUDINGTON      MOCLDY    19  16  86 E6        30.26F WCI  11
6HR MIN TEMP:  18; 6HR MAX TEMP:  22;

MARSHALL       CLOUDY    19  13  77 CALM      30.33R
MOUNT PLEASANT MOCLDY    19  11  69 CALM      30.29F
6HR MIN TEMP:  15; 6HR MAX TEMP:  20;

MUSKEGON       FLURRIES  20  15  81 SE9       30.29F WCI   9
6HR MIN TEMP:  20; 6HR MAX TEMP:  21; 6HR PCP: TRACE;

SOUTH HAVEN    CLOUDY    23  20  87 SE5       30.30F WCI  17
$$
MIZ016>042-281300-
NORTHERN LOWER MICHIGAN

CITY           SKY/WX    TMP DP  RH WIND       PRES   REMARKS
ALPENA         CLOUDY    16  12  84 SW5       30.26F WCI   9
6HR MIN TEMP:  14; 6HR MAX TEMP:  17;

BEAVER ISLAND  CLOUDY    20  13  73 W6        30.23F WCI  13
6HR MIN TEMP:  19; 6HR MAX TEMP:  20;

BELLAIRE       FLURRIES  19  15  84 S7        30.27S WCI   9
CADILLAC       MOCLDY    15  12  88 S7        30.22F WCI   5
CHARLEVOIX     FLURRIES  20  15  81 S6        30.27S WCI  12
6HR MIN TEMP:  19; 6HR MAX TEMP:  21;

FRANKFORT      CLOUDY    20  14  80 SE6       30.25F WCI  12
GAYLORD        CLOUDY    14  11  87 S5        30.20F WCI   6
6HR MIN TEMP:  11; 6HR MAX TEMP:  14; 6HR PCP: TRACE;

GRAYLING       MOCLDY    13  10  87 CALM      30.24F
6HR MIN TEMP:  13; 6HR MAX TEMP:  16;

HARBOR SPRINGS CLOUDY    18  13  81 E3        30.24S
HOUGHTON LAKE  CLOUDY    13  10  88 CALM      30.25F
6HR MIN TEMP:  11; 6HR MAX TEMP:  16; 6HR PCP: TRACE;

MANISTEE       CLOUDY    19  12  73 SE5       30.25F WCI  13
OSCODA         MOCLDY    15  12  87 SW6       30.28F WCI   7
PELLSTON       CLOUDY    16  12  84 SE3       30.24F
6HR MIN TEMP:  15; 6HR MAX TEMP:  18; 6HR PCP: TRACE;

ROGERS CITY    MOCLDY    15  14  92 SW7       30.27S WCI   6
TRAVERSE CITY  MOCLDY    18  12  77 S5        30.26F WCI  11
6HR MIN TEMP:  17; 6HR MAX TEMP:  19; 6HR PCP: TRACE;

$$
MIZ007>008-015-281300-
EASTERN UPPER MICHIGAN

CITY           SKY/WX    TMP DP  RH WIND       PRES   REMARKS
KINROSS        CLOUDY     3   1  92 SE5       30.23F WCI  -6
6HR MIN TEMP:  -2; 6HR MAX TEMP:   3;

MACKINAC ISLAN MOCLDY    17  13  86 CALM      30.23F
6HR MIN TEMP:  15; 6HR MAX TEMP:  17;

NEWBERRY       CLOUDY    10   7  85 SW8       30.21S WCI  -1
6HR MIN TEMP:   8; 6HR MAX TEMP:  10;

S. S. MARIE    MOCLDY     2  -4  76 E3        30.26R
6HR MIN TEMP:  -4; 6HR MAX TEMP:   2;

MUNISING         N/A     11   2  67 SW9       30.22F WCI  -2
6HR MIN TEMP:   9; 6HR MAX TEMP:  14;

$$
MIZ004>006-011>014-085-281300-
CENTRAL UPPER MICHIGAN

CITY           SKY/WX    TMP DP  RH WIND       PRES   REMARKS
MANISTIQUE     CLOUDY     9   4  81 W3        30.24F
6HR MIN TEMP:   6; 6HR MAX TEMP:   9;

ESCANABA       CLOUDY     7   3  85 NW6       30.25S WCI  -3
6HR MIN TEMP:   3; 6HR MAX TEMP:   7;

MENOMINEE      CLOUDY     9   3  78 W3        30.25F
6HR MIN TEMP:   0; 6HR MAX TEMP:   9;

SAWYER-GWINN   PTCLDY     5   1  85 SW5       30.17F WCI  -4
$$
MIZ001>003-009>011-084-281300-
WESTERN UPPER MICHIGAN

CITY           SKY/WX    TMP DP  RH WIND       PRES   REMARKS
IRON MOUNTAIN  CLOUDY     2  -2  83 CALM      30.18F
6HR MIN TEMP:  -7; 6HR MAX TEMP:   2;

HOUGHTON       CLOUDY     8   0  69 SW6       30.14F WCI  -2
6HR MIN TEMP:   4; 6HR MAX TEMP:   9; 6HR PCP: TRACE;

COPPER HARBOR    N/A     14   3  61 W9G18     30.17F WCI   2
6HR MIN TEMP:  11; 6HR MAX TEMP:  14;

IRONWOOD       CLOUDY     7   1  78 S3        30.10F
6HR MIN TEMP:  -9; 6HR MAX TEMP:   7;

$$

ABBREVIATIONS USED IN REMARKS
   TC - TEMPERATURE IN CELSIUS
  WCI - WIND CHILL INDEX
   HX - HEAT INDEX
  VSB - VISIBILITY




USA.gov is the U.S. government's official web portal to all federal, state and local government web resources and services.